QFA4359 NWWW-YSSY

Flight info

Callsign QFA4359
Flight time N/A
Altitude 38000
Route POXAK3E POXAK B580 MISLY DCT RIKNI N774 MARLN
Aircraft A35K/H-SDE2E3GHIJ3J4J5LM1ORWXY/LB1D1

Departure

Time 2026-05-04 21:09
Airport La Tontouta International Airport (NWWW)

Arrival

Time N/A
Airport Sydney Kingsford Smith International Airport (YSSY)
Time Latitude Longitude Altitude Speed Heading
2026-05-04 20:53 -22.01488 166.21760 58 ft 0 kts 31°
2026-05-04 21:00 -22.01498 166.21753 58 ft 4 kts 31°
2026-05-04 21:00 -22.01522 166.21738 58 ft 3 kts 31°
2026-05-04 21:01 -22.01542 166.21728 58 ft 4 kts 349°
2026-05-04 21:01 -22.01562 166.21742 58 ft 4 kts 306°
2026-05-04 21:01 -22.01574 166.21762 58 ft 1 kts 301°
2026-05-04 21:01 -22.01576 166.21766 58 ft 0 kts 301°
2026-05-04 21:03 -22.01574 166.21763 58 ft 2 kts 301°
2026-05-04 21:04 -22.01560 166.21737 58 ft 6 kts 301°
2026-05-04 21:04 -22.01555 166.21683 59 ft 8 kts 246°
2026-05-04 21:04 -22.01608 166.21625 57 ft 13 kts 243°
2026-05-04 21:04 -22.01581 166.21525 59 ft 16 kts 301°
2026-05-04 21:05 -22.01514 166.21407 55 ft 21 kts 301°
2026-05-04 21:05 -22.01434 166.21264 59 ft 24 kts 301°
2026-05-04 21:05 -22.01341 166.21099 55 ft 28 kts 301°
2026-05-04 21:05 -22.01235 166.20911 56 ft 31 kts 301°
2026-05-04 21:06 -22.01116 166.20699 52 ft 35 kts 301°
2026-05-04 21:06 -22.00983 166.20462 50 ft 39 kts 301°
2026-05-04 21:06 -22.00849 166.20223 48 ft 24 kts 301°
2026-05-04 21:06 -22.00778 166.20097 46 ft 19 kts 301°
2026-05-04 21:07 -22.00712 166.20016 46 ft 11 kts 332°
2026-05-04 21:07 -22.00689 166.19988 45 ft 2 kts 275°
2026-05-04 21:07 -22.00696 166.19980 45 ft 1 kts 225°
2026-05-04 21:07 -22.00704 166.19980 45 ft 1 kts 187°
2026-05-04 21:08 -22.00709 166.19983 45 ft 1 kts 158°
2026-05-04 21:08 -22.00718 166.19995 45 ft 3 kts 125°
2026-05-04 21:08 -22.00799 166.20134 47 ft 62 kts 121°
2026-05-04 21:08 -22.01177 166.20809 53 ft 145 kts 121°
2026-05-04 21:09 -22.01789 166.21916 455 ft 183 kts 121°
2026-05-04 21:09 -22.02455 166.23108 1407 ft 193 kts 122°
2026-05-04 21:09 -22.03481 166.24174 1965 ft 223 kts 152°
2026-05-04 21:09 -22.05099 166.24431 2434 ft 252 kts 191°
2026-05-04 21:10 -22.06630 166.23533 3312 ft 263 kts 225°
2026-05-04 21:10 -22.07487 166.21782 4342 ft 270 kts 258°
2026-05-04 21:10 -22.07735 166.19760 5405 ft 274 kts 262°
2026-05-04 21:10 -22.08109 166.17741 6522 ft 276 kts 255°
2026-05-04 21:11 -22.08701 166.15756 7608 ft 280 kts 249°
2026-05-04 21:11 -22.09480 166.13815 8799 ft 284 kts 244°
2026-05-04 21:11 -22.10451 166.11947 9997 ft 288 kts 239°
2026-05-04 21:11 -22.11611 166.10125 10791 ft 306 kts 234°
2026-05-04 21:12 -22.13024 166.08285 11267 ft 332 kts 228°
2026-05-04 21:12 -22.14682 166.06442 11831 ft 350 kts 225°
2026-05-04 21:12 -22.16443 166.04577 12624 ft 358 kts 224°
2026-05-04 21:12 -22.18236 166.02683 13509 ft 364 kts 224°
2026-05-04 21:13 -22.20050 166.00762 14337 ft 367 kts 224°
2026-05-04 21:13 -22.21877 165.98828 15132 ft 369 kts 223°
2026-05-04 21:13 -22.23724 165.96891 15951 ft 371 kts 223°
2026-05-04 21:13 -22.25576 165.94951 16783 ft 372 kts 223°
2026-05-04 21:14 -22.27435 165.93002 17609 ft 373 kts 223°
2026-05-04 21:14 -22.29302 165.91043 18393 ft 375 kts 223°
2026-05-04 21:14 -22.31179 165.89072 19067 ft 377 kts 223°
2026-05-04 21:14 -22.33068 165.87087 19717 ft 381 kts 223°
2026-05-04 21:15 -22.34972 165.85084 20390 ft 384 kts 223°
2026-05-04 21:15 -22.36892 165.83064 21098 ft 387 kts 223°
2026-05-04 21:15 -22.38826 165.81028 21807 ft 389 kts 223°
2026-05-04 21:15 -22.40772 165.78978 22517 ft 392 kts 223°
2026-05-04 21:16 -22.42735 165.76911 23208 ft 396 kts 223°
2026-05-04 21:16 -22.44715 165.74824 23854 ft 399 kts 223°
2026-05-04 21:16 -22.46707 165.72724 24466 ft 402 kts 223°